Tracking 28335 objects as of 4-Dec-2023
HD Live streaming from Space Station
objects crossing your sky now

SL-8 DEB

Track SL-8 DEB now!
10-day predictions


NORAD ID: 21955
Int'l Code: 1991-009CF
Perigee: 1,522.2 km
Apogee: 1,780.9 km
Inclination: 74.3 °
Period: 119.2 minutes
Semi major axis: 8022 km
RCS: 0.0532 m2 (small)
Launch date: February 12, 1991
Source: Commonwealth of Independent States (former USSR) (CIS)
Launch site: PLESETSK MISSILE AND SPACE COMPLEX (PKMTR)

Note: This is SATELLITE DEBRIS
Your satellite tracking list
Your tracking list is empty




NASA's NSSDC Master Catalog

Two Line Element Set (TLE):
1 21955U 91009CF  23331.91037176 -.00000294  00000-0 -30184-2 0  9992
2 21955  74.3049 136.2246 0161256 286.0237 196.3293 12.08194403442931
Source of the keplerian elements: AFSPC